Back to catalog

QIANFAN-104

AliveCommunicationsPO
NORAD 66046·PAYLOAD·🇨🇳 China

Launched Oct 17, 2025 from Taiyuan Satellite Launch Center

Loading…

Next Passes (next 24 hours)

TLE

FreshSource: Space-Track

Epoch: Sep 14, 2026, 15:41 UTC

1 66046U 25233P   26257.65392121  .00000062  00000-0  77992-4 0  9994
2 66046  89.0058  34.0610 0001810 100.4360 259.6995 13.51025923 45311

Track QIANFAN-104 in real time with AllMySat

Download on the App Store